Regional Weather Roundup
Issued by NWS

Home | Current Version | Previous Version | Text Only | Print | Product List | Glossary Off
Versions: 1 2 3 4 5 6 7 8 9 10 11 12 13 14 15 16 17 18 19 20 21 22 23 24 25 26 27 28 29 30 31 32 33 34 35 36 37 38 39 40 41 42 43 44 45 46 47 48 49 50

610
ASUS45 KCYS 241110
RWRWY

WYOMING REGIONAL WEATHER ROUNDUP
NATIONAL WEATHER SERVICE CHEYENNE WY
500 AM MDT MON JUL 24 2017

NOTE:  "FAIR" INDICATES FEW OR NO CLOUDS BELOW 12,000 FEET
WITH NO SIGNIFICANT WEATHER AND/OR OBSTRUCTIONS TO VISIBILITY.

WYZ001-241200-
YELLOWSTONE NATIONAL PARK

CITY           SKY/WX    TMP DP  RH WIND       PRES   REMARKS
LK YELLOWSTONE   N/A     41  38  89 NW3       30.26S
W YELLOWSTONE  NOT AVBL

$$
WYZ002>013-054>058-071-098>099-241200-
NORTHERN WYOMING

CITY           SKY/WX    TMP DP  RH WIND       PRES   REMARKS
JACKSON        FAIR      45  39  81 N6        30.18R
CODY           FAIR      67  38  34 S9        30.00R
GREYBULL       FAIR      62  32  32 E5        29.91S
WORLAND        FAIR      58  37  45 CALM      29.93R
SHERIDAN       FAIR      64  47  53 S5        29.89S
BUFFALO        FAIR      64  40  41 S5        29.99R
GILLETTE       FAIR      57  55  93 SW5       29.93S
HULETT         FAIR      64  52  63 S5        29.94S
NEWCASTLE      FAIR      73  45  35 SE14      29.93S

$$
WYZ014>020-022>026-101>103-241200-
CENTRAL WYOMING

CITY           SKY/WX    TMP DP  RH WIND       PRES   REMARKS
BIG PINEY      FAIR      46  36  68 NE8       30.21S
PINEDALE       FAIR      43  37  81 W8        30.23S
DUBOIS         FAIR      54  34  47 NW16      30.18S
LANDER         FAIR      65  35  33 VRB3      30.07S
RIVERTON       FAIR      63  33  32 W8        30.05S
CASPER         FAIR      60  40  47 W5        30.05R
DOUGLAS        FAIR      58  46  64 NW3       30.01R

$$
WYZ021-027>030-104>119-241200-
SOUTHERN WYOMING

CITY           SKY/WX    TMP DP  RH WIND       PRES   REMARKS
EVANSTON       MOCLDY    61  39  44 SE6       30.22F
KEMMERER         N/A     54  36  50 NW9       30.24S
FORT BRIDGER   FAIR      67  36  31 W9        30.24S
ROCK SPRINGS   FAIR      62  36  37 W9        30.19R
RAWLINS        FAIR      53  28  38 SE5       30.19R
SARATOGA       FAIR      61  41  48 SE13      30.22S
LARAMIE        FAIR      52  45  77 S8        30.22R
CHEYENNE       FAIR      61  52  72 SW3       30.13R
TORRINGTON     FAIR      72  54  53 S6        29.97F
PINE BLUFFS    FAIR      64  55  72 S12       30.08S

$$




USA.gov is the U.S. government's official web portal to all federal, state and local government web resources and services.